Pertusola — IBER — position and weather

sailwx.info

Track history (hours):
 
Tides and Currents Weather Stations Pressure Air Temp Water Temp Dewpoint Dewpoint Depression Visibility Wind Speed Wind Dir Waves Ship Positions

Pertusola

Last reported at 2014-Oct-24 00:33 UTC. Time now 2014-Oct-25 22:13 UTC.
Position N 38°35' W 009°53'.

Length 145 m; draft 9.2 m.

Type: Ship (hazmat cat A). MMSI: 247399000.

Date/timePositionNaut miles runAvg speedWind from/ knotsBaromVisibWave heightAir tempDewpointWater temp
2014-Oct-24 00:33N 38°35' W 009°53'1611.8
2014-Oct-23 23:13N 38°20' W 009°49'811.8
2014-Oct-23 22:33N 38°12' W 009°46'1211.7
2014-Oct-23 21:33N 38°01' W 009°43'1111.5
2014-Oct-23 20:33N 37°49' W 009°40'1111.3
2014-Oct-23 19:34N 37°38' W 009°37'1211.6
2014-Oct-23 18:32N 37°27' W 009°33'1212.0
2014-Oct-23 17:33N 37°16' W 009°30'1212.2
2014-Oct-23 16:34N 37°04' W 009°26'1312.0
2014-Oct-23 15:29N 36°51' W 009°22'1611.9
2014-Oct-23 14:10N 36°41' W 009°08'812.4
2014-Oct-23 13:34N 36°39' W 008°59'5212.4
2014-Oct-23 09:21N 36°24' W 007°56'1012.8
2014-Oct-23 08:33N 36°21' W 007°44'10412.3
2014-Oct-23 00:05N 35°58' W 005°39'611.9
2014-Oct-22 23:33N 35°60' W 005°31'10 9.9
2014-Oct-22 22:29N 36°08' W 005°23'1 0.8
2014-Oct-22 21:32N 36°08' W 005°22'0 0.1
2014-Oct-22 20:14N 36°08' W 005°22'0 0.3
2014-Oct-22 19:32N 36°08' W 005°22'0 0.2
2014-Oct-22 18:32N 36°08' W 005°22'0 0.0
2014-Oct-22 17:32N 36°08' W 005°22'0 0.1
2014-Oct-22 16:26N 36°08' W 005°22'0 0.1
2014-Oct-22 15:32N 36°08' W 005°22'0 0.0
2014-Oct-22 14:29N 36°08' W 005°22'4 4.0
2014-Oct-22 13:33N 36°05' W 005°21'3 3.5
2014-Oct-22 12:33N 36°06' W 005°17'0 0.3
2014-Oct-22 11:31N 36°06' W 005°17'3 3.4
2014-Oct-22 10:30N 36°09' W 005°14'1 1.1
2014-Oct-22 09:33N 36°08' W 005°13'1 1.2
2014-Oct-22 08:33N 36°09' W 005°12'1 0.8
2014-Oct-22 07:33N 36°09' W 005°12'1 1.3
2014-Oct-22 06:33N 36°08' W 005°11'20112.5
2014-Oct-21 14:31N 36°41' W 001°04'1212.3
2014-Oct-21 13:33N 36°44' W 000°50'1212.4
2014-Oct-21 12:33N 36°47' W 000°35'2512.4
2014-Oct-21 10:33N 36°53' W 000°05'1312.9
2014-Oct-21 09:32N 36°57' E 000°11'1212.5
2014-Oct-21 08:33N 37°00' E 000°25'1312.6
2014-Oct-21 07:33N 37°03' E 000°41'1312.6
2014-Oct-21 06:33N 37°07' E 000°56'1312.6
2014-Oct-21 05:33N 37°10' E 001°11'1312.6
2014-Oct-21 04:32N 37°13' E 001°27'1212.4
2014-Oct-21 03:33N 37°17' E 001°42'1212.4
2014-Oct-21 02:34N 37°20' E 001°57'3210.7
2014-Oct-20 23:33N 37°48' E 002°16'4 3.5
2014-Oct-20 22:32N 37°51' E 002°19'28 9.2
2014-Oct-20 19:29N 37°30' E 002°43'14212.5
2014-Oct-20 08:11N 37°60' E 005°38'12712.7
2014-Oct-19 22:08N 38°00' E 008°20'712.6
2014-Oct-19 21:33N 38°00' E 008°29'1312.5
2014-Oct-19 20:32N 38°00' E 008°45'1312.8
2014-Oct-19 19:33N 37°60' E 009°01'1312.7
2014-Oct-19 18:32N 37°60' E 009°17'1512.6
2014-Oct-19 17:21N 37°60' E 009°37'1012.6
2014-Oct-19 16:33N 38°00' E 009°49'19712.3
2014-Oct-19 00:33N 36°59' E 013°45'1312.7
2014-Oct-18 23:33N 36°53' E 013°59'1212.5
2014-Oct-18 22:33N 36°46' E 014°12'1212.3
2014-Oct-18 21:33N 36°42' E 014°26'1212.5
2014-Oct-18 20:33N 36°37' E 014°41'2013.3
2014-Oct-18 19:03N 36°31' E 015°05'5812.8
2014-Oct-18 14:33N 35°36' E 015°25'1312.6
2014-Oct-18 13:33N 35°23' E 015°30'1312.5
2014-Oct-18 12:33N 35°11' E 015°34'1312.8
2014-Oct-18 11:33N 34°59' E 015°39'1312.9
2014-Oct-18 10:33N 34°47' E 015°43'1313.1
2014-Oct-18 09:33N 34°34' E 015°48'1313.2
2014-Oct-18 08:33N 34°22' E 015°52'1413.1
2014-Oct-18 07:31N 34°09' E 015°57'1212.6
2014-Oct-18 06:33N 33°57' E 016°03'1212.3
2014-Oct-18 05:33N 33°48' E 016°13'1212.0
2014-Oct-18 04:33N 33°40' E 016°23'1611.9
2014-Oct-18 03:13N 33°28' E 016°35'812.1
2014-Oct-18 02:33N 33°22' E 016°42'5112.3
2014-Oct-17 22:25N 32°44' E 017°23'7712.4
2014-Oct-17 16:10N 31°47' E 018°25'1212.2
2014-Oct-17 15:13N 31°39' E 018°34'1312.3
2014-Oct-17 14:12N 31°30' E 018°44'  
2014-Oct-14 18:30N 30°31' E 019°36'0 0.0
2014-Oct-14 17:21N 30°31' E 019°36'0 0.0
2014-Oct-14 16:33N 30°31' E 019°36'0 0.0
2014-Oct-14 15:30N 30°31' E 019°36'  
Track history (hours):
 
Tides and Currents Weather Stations Pressure Air Temp Water Temp Dewpoint Dewpoint Depression Visibility Wind Speed Wind Dir Waves Ship Positions

Pertusola

Last reported at 2014-Oct-24 00:33 UTC. Time now 2014-Oct-25 22:13 UTC.
Position N 38°35' W 009°53'.

Length 145 m; draft 9.2 m.

Type: Ship (hazmat cat A). MMSI: 247399000.

Date/timePositionNaut miles runAvg speedWind from/ knotsBaromVisibWave heightAir tempDewpointWater temp
2014-Oct-24 00:33N 38°35' W 009°53'1611.8
2014-Oct-23 23:13N 38°20' W 009°49'811.8
2014-Oct-23 22:33N 38°12' W 009°46'1211.7
2014-Oct-23 21:33N 38°01' W 009°43'1111.5
2014-Oct-23 20:33N 37°49' W 009°40'1111.3
2014-Oct-23 19:34N 37°38' W 009°37'1211.6
2014-Oct-23 18:32N 37°27' W 009°33'1212.0
2014-Oct-23 17:33N 37°16' W 009°30'1212.2
2014-Oct-23 16:34N 37°04' W 009°26'1312.0
2014-Oct-23 15:29N 36°51' W 009°22'1611.9
2014-Oct-23 14:10N 36°41' W 009°08'812.4
2014-Oct-23 13:34N 36°39' W 008°59'5212.4
2014-Oct-23 09:21N 36°24' W 007°56'1012.8
2014-Oct-23 08:33N 36°21' W 007°44'10412.3
2014-Oct-23 00:05N 35°58' W 005°39'611.9
2014-Oct-22 23:33N 35°60' W 005°31'10 9.9
2014-Oct-22 22:29N 36°08' W 005°23'1 0.8
2014-Oct-22 21:32N 36°08' W 005°22'0 0.1
2014-Oct-22 20:14N 36°08' W 005°22'0 0.3
2014-Oct-22 19:32N 36°08' W 005°22'0 0.2
2014-Oct-22 18:32N 36°08' W 005°22'0 0.0
2014-Oct-22 17:32N 36°08' W 005°22'0 0.1
2014-Oct-22 16:26N 36°08' W 005°22'0 0.1
2014-Oct-22 15:32N 36°08' W 005°22'0 0.0
2014-Oct-22 14:29N 36°08' W 005°22'4 4.0
2014-Oct-22 13:33N 36°05' W 005°21'3 3.5
2014-Oct-22 12:33N 36°06' W 005°17'0 0.3
2014-Oct-22 11:31N 36°06' W 005°17'3 3.4
2014-Oct-22 10:30N 36°09' W 005°14'1 1.1
2014-Oct-22 09:33N 36°08' W 005°13'1 1.2
2014-Oct-22 08:33N 36°09' W 005°12'1 0.8
2014-Oct-22 07:33N 36°09' W 005°12'1 1.3
2014-Oct-22 06:33N 36°08' W 005°11'20112.5
2014-Oct-21 14:31N 36°41' W 001°04'1212.3
2014-Oct-21 13:33N 36°44' W 000°50'1212.4
2014-Oct-21 12:33N 36°47' W 000°35'2512.4
2014-Oct-21 10:33N 36°53' W 000°05'1312.9
2014-Oct-21 09:32N 36°57' E 000°11'1212.5
2014-Oct-21 08:33N 37°00' E 000°25'1312.6
2014-Oct-21 07:33N 37°03' E 000°41'1312.6
2014-Oct-21 06:33N 37°07' E 000°56'1312.6
2014-Oct-21 05:33N 37°10' E 001°11'1312.6
2014-Oct-21 04:32N 37°13' E 001°27'1212.4
2014-Oct-21 03:33N 37°17' E 001°42'1212.4
2014-Oct-21 02:34N 37°20' E 001°57'3210.7
2014-Oct-20 23:33N 37°48' E 002°16'4 3.5
2014-Oct-20 22:32N 37°51' E 002°19'28 9.2
2014-Oct-20 19:29N 37°30' E 002°43'14212.5
2014-Oct-20 08:11N 37°60' E 005°38'12712.7
2014-Oct-19 22:08N 38°00' E 008°20'712.6
2014-Oct-19 21:33N 38°00' E 008°29'1312.5
2014-Oct-19 20:32N 38°00' E 008°45'1312.8
2014-Oct-19 19:33N 37°60' E 009°01'1312.7
2014-Oct-19 18:32N 37°60' E 009°17'1512.6
2014-Oct-19 17:21N 37°60' E 009°37'1012.6
2014-Oct-19 16:33N 38°00' E 009°49'19712.3
2014-Oct-19 00:33N 36°59' E 013°45'1312.7
2014-Oct-18 23:33N 36°53' E 013°59'1212.5
2014-Oct-18 22:33N 36°46' E 014°12'1212.3
2014-Oct-18 21:33N 36°42' E 014°26'1212.5
2014-Oct-18 20:33N 36°37' E 014°41'2013.3
2014-Oct-18 19:03N 36°31' E 015°05'5812.8
2014-Oct-18 14:33N 35°36' E 015°25'1312.6
2014-Oct-18 13:33N 35°23' E 015°30'1312.5
2014-Oct-18 12:33N 35°11' E 015°34'1312.8
2014-Oct-18 11:33N 34°59' E 015°39'1312.9
2014-Oct-18 10:33N 34°47' E 015°43'1313.1
2014-Oct-18 09:33N 34°34' E 015°48'1313.2
2014-Oct-18 08:33N 34°22' E 015°52'1413.1
2014-Oct-18 07:31N 34°09' E 015°57'1212.6
2014-Oct-18 06:33N 33°57' E 016°03'1212.3
2014-Oct-18 05:33N 33°48' E 016°13'1212.0
2014-Oct-18 04:33N 33°40' E 016°23'1611.9
2014-Oct-18 03:13N 33°28' E 016°35'812.1
2014-Oct-18 02:33N 33°22' E 016°42'5112.3
2014-Oct-17 22:25N 32°44' E 017°23'7712.4
2014-Oct-17 16:10N 31°47' E 018°25'1212.2
2014-Oct-17 15:13N 31°39' E 018°34'1312.3
2014-Oct-17 14:12N 31°30' E 018°44'  
2014-Oct-14 18:30N 30°31' E 019°36'0 0.0
2014-Oct-14 17:21N 30°31' E 019°36'0 0.0
2014-Oct-14 16:33N 30°31' E 019°36'0 0.0
2014-Oct-14 15:30N 30°31' E 019°36'  

Dump ship's entire track history